SCP
0 0 0 0 0 0 0 0 0 0 0 0 0 -0 0 0 -0 0 -0 -0 -0 -0 -0 -0 0 0 0 0 0 0 0 0 0 0 0 0 0 0
0 0 0 0 0 0 0 0 0 0 0 0 0 -0 0 0 -0 -0 0 0 -0 -0 0 0 0 0 0 0 0 0 0 0 0 0 0 0 0 0
0 0 0 0 0 0 0 0 0 0 0 0 0 -0 0 0 0 0 -0 -0 -0 -0 -0 -0 -0 0 0 0 0 0 0 0 0 0 0 0 0 0
0 0 0 0 0 0 0 0 0 0 0 0 0 0 0 0 -0 -0 0 0 0 -0 -0 0 0 0 0 0 0 0 0 0 0 0 0 0 0 0
0 0 0 0 0 0 0 0 0 0 0 0 0 0 0 0 0 -0 0 -0 0 0 0 0 0 0 0 0 0 0 0 0 0 0 0 0 0 0
0 0 0 0 0 0 0 0 0 0 0 0 0 0 0 0 0 0 0 0 0 0 0 0 0 0 0 0 0 0 0 0 0 0 0 0 0 0
0 0 0 0 0 -0 -0 -0 0 0 0 0 0 0 0 0 0 0 0 0 -0 0 0 0 0 0 0 0 0 0 0 0 0 0 0 0 0 0
0 0 0 -0 -0 -0 0 0 0 0 0 0 -0 -0 0 0 0 0 0 0 -0 0 0 0 0 0 0 0 0 0 0 0 0 0 0 0 0 0
0 -0 0 0 -0 -0 -0 -0 0 0 0 0 0 -0 0 -0 0 0 0 0 0 0 0 0 0 0 0 0 0 0 0 0 0 0 0 0 0 0
0 0 0 0 -0 0 0 0 0 0 0 0 -0 0 0 0 0 0 0 0 0 0 0 0 0 0 0 0 0 0 0 0 0 0 0 0 0 0
-0 -0 0 0 -0 0 -0 0 -0 -0 -0 0 -0 -0 0 0 0 0 0 0 0 0 0 0 0 0 0 0 0 0 0 0 0 0 0 0 0 0
0 0 0 0 0 0 -0 -0 -0 -0 -0 -0 -0 -0 0 0 0 0 0 0 0 0 0 0 0 0 0 0 0 0 0 0 0 0 0 0 0 0
0 0 -0 0 0 0 0 -0 -0 -0 -0 -0 0 0 0 0 0 0 0 0 0 0 0 0 0 0 0 0 0 0 0 0 0 0 0 0 0 0
-0 0 0 0 0 0 0 0 0 0 0 0 0 0 0 0 0 0 0 0 0 0 0 0 0 0 0 0 0 0 0 0 0 0 0 0 0 0
0 -0 -0 -0 -0 -0 -0 0 0 0 0 0 0 0 0 0 0 0 0 0 0 0 0 0 0 0 0 0 0 0 0 0 0 0 0 0 0 0
-0 -0 -0 0 0 0 0 0 0 0 0 0 0 0 0 0 0 0 0 0 0 0 0 0 0 0 0 0 0 0 0 0 0 0 0 0 0 0
-0 0 0 0 0 0 0 0 0 0 0 0 0 0 0 0 0 0 0 0 0 0 0 0 0 0 0 0 0 0 0 0 0 0 0 0 0 0
0 0 0 0 0 0 0 0 0 0 0 0 0 0 0 0 0 0 0 0 0 0 0 0 -0 -0 -0 0 0 0 0 0 0 0 0 0 0 0
0 0 0 0 0 0 0 0 0 0 0 0 0 0 0 0 0 0 0 0 0 0 0 0 0 -0 0 0 0 0 0 0 0 0 0 0 0 0
0 0 0 0 0 0 0 0 0 0 0 0 0 0 0 0 0 0 0 0 0 0 0 0 0 0 0 0 0 0 0 0 0 0 0 0 0 0
0 0 0 0 0 0 0 0 0 0 0 0 0 0 0 0 0 0 0 0 0 0 0 0 0 0 0 0 0 0 0 0 0 0 0 0 0 0
0 0 0 0 0 0 0 0 0 0 0 0 0 0 0 0 0 0 0 0 0 0 0 0 0 0 0 0 0 0 0 0 0 0 0 0 0 0
0 0 0 0 0 0 0 0 0 0 0 0 0 0 0 0 0 0 0 0 0 0 0 0 0 0 0 0 0 0 0 0 0 0 0 0 0 0
Wind_Speed_500mb
46 45 55 69 77 81 78 83 82 53 48 56 53 55 55 54 46 25 17 19 18 18 20 21 19 17 14 16 18 19 23 25 28 29 32 34 35 36
48 49 52 60 71 77 80 76 64 70 41 66 60 57 48 46 33 27 21 19 17 17 18 20 20 19 18 19 22 27 29 30 32 36 38 39 41 42
43 39 43 56 62 72 72 55 46 49 62 53 47 40 42 46 39 22 19 17 16 19 21 22 24 23 24 27 26 30 31 34 39 43 46 45 46 48
35 40 46 56 70 69 65 51 57 44 45 44 39 31 27 26 18 18 16 20 18 17 22 23 27 26 25 28 30 35 38 43 47 49 51 52 54 53
25 40 53 62 56 51 50 55 49 37 36 32 31 30 28 24 25 24 19 19 20 19 17 22 20 23 27 32 38 42 47 50 53 56 59 59 59 59
36 49 52 54 59 56 49 47 49 34 30 31 30 24 30 33 23 23 23 22 16 14 19 23 29 31 34 37 41 48 49 49 48 46 48 51 57 61
44 42 45 54 58 57 48 49 40 33 33 27 24 30 30 32 24 15 20 20 21 22 26 25 29 31 32 37 40 40 39 39 42 46 48 51 56 54
37 42 45 50 52 46 42 35 31 34 29 26 22 20 17 14 12 13 20 21 22 16 29 29 38 47 44 46 46 49 50 48 49 53 58 60 59 56
47 48 47 49 51 42 34 37 32 29 21 21 15 10 8 6 3 14 18 21 26 27 39 49 49 54 47 53 49 55 51 47 49 55 59 63 62 62
37 38 43 46 42 42 44 32 31 32 29 22 33 19 12 19 24 23 25 28 28 30 34 38 34 29 23 39 40 33 33 44 64 76 62 53 60 66
29 28 33 32 37 36 42 46 37 35 26 24 33 32 25 27 30 30 31 31 33 28 34 34 36 45 52 53 52 52 54 52 50 45 43 46 56 65
33 25 36 36 35 35 42 44 36 38 26 27 21 15 13 6 4 6 7 11 12 24 23 41 46 49 51 40 46 43 46 47 50 50 49 48 48 55
33 31 36 34 36 36 33 32 30 28 25 20 12 6 2 10 12 13 12 13 16 18 32 44 48 45 42 54 56 54 59 59 57 54 52 56 67 56
35 34 34 38 41 40 36 35 29 22 15 7 6 12 11 11 6 2 8 18 23 29 27 30 30 33 40 52 61 64 63 55 51 52 56 61 62 60
28 34 39 43 46 41 35 29 23 21 18 14 17 14 8 6 13 15 8 15 20 19 17 19 29 39 45 47 55 59 58 72 67 54 54 50 56 57
32 40 40 40 40 35 31 29 25 18 14 22 20 9 10 8 15 19 19 16 14 10 19 26 34 35 37 42 51 61 62 67 67 60 62 65 64 68
39 40 43 43 42 40 36 26 18 18 28 24 16 13 15 12 6 8 8 8 17 24 26 24 30 36 45 51 59 49 60 63 65 70 75 76 76 76
49 48 43 41 39 35 30 22 31 27 32 28 20 5 2 6 6 11 14 16 18 15 22 32 42 51 61 61 52 60 58 57 63 71 74 64 66 63
53 47 41 38 32 27 29 31 34 42 37 26 13 4 8 6 12 10 6 11 16 20 24 32 43 54 68 71 69 59 60 59 56 59 60 55 57 58
61 49 44 38 33 34 39 43 52 50 44 30 16 9 14 10 9 12 9 11 15 22 30 38 46 53 60 67 64 61 54 58 56 61 58 55 53 51
60 55 52 47 40 44 49 54 57 51 38 19 25 11 11 15 14 10 5 11 19 24 30 39 49 56 62 69 64 64 58 51 47 53 59 63 63 66
55 56 60 51 44 54 58 59 54 39 28 32 15 13 20 19 15 9 7 12 17 25 31 41 49 58 65 61 61 64 60 52 45 44 45 45 59 52
57 60 59 56 59 65 59 53 43 36 34 19 19 29 25 20 14 6 5 14 22 27 36 43 51 57 58 56 57 61 58 58 64 65 54 45 45 43
Wind_Direction_500mb
155 156 150 156 164 164 161 154 155 147 154 170 167 173 171 176 179 179 200 213 218 207 197 198 205 218 244 261 270 271 275 285 290 300 301 299 296 295
148 149 153 161 162 165 159 160 158 161 150 164 166 173 173 179 182 208 213 205 214 219 221 219 224 240 263 275 278 279 280 288 296 297 296 295 293 293
145 153 152 159 158 164 153 155 149 165 156 160 163 164 170 182 203 205 203 208 215 221 223 230 241 260 273 278 280 282 290 295 294 293 292 293 293 291
151 156 157 161 158 151 157 159 155 158 164 160 163 171 184 191 206 212 197 211 215 232 246 254 261 266 275 285 288 288 291 291 291 291 293 292 290 290
144 160 161 163 167 173 168 161 161 147 163 170 183 202 204 201 203 194 208 220 223 234 249 245 268 286 285 285 287 291 291 292 294 297 296 292 292 292
146 149 150 154 154 159 163 154 158 160 171 183 193 197 204 203 204 214 222 242 268 267 271 279 280 287 291 295 296 292 295 298 301 304 307 308 305 301
133 140 145 153 153 147 144 150 151 162 165 174 190 178 193 201 211 212 233 247 259 273 273 286 298 297 301 301 303 306 309 308 309 318 317 310 307 304
148 146 141 143 142 142 136 145 158 166 162 163 152 156 181 165 177 218 236 243 261 273 296 302 305 303 301 304 319 311 309 309 316 317 311 307 303 303
147 141 142 147 159 157 156 159 171 175 174 178 194 170 188 65 292 254 254 265 282 300 295 297 302 306 318 313 315 310 306 308 314 312 302 303 302 299
146 147 149 151 158 165 162 172 175 175 185 205 220 232 249 249 245 261 272 282 276 287 288 299 311 326 341 331 326 314 315 305 304 302 299 294 300 303
145 152 157 153 157 169 177 177 175 182 176 174 183 203 215 224 234 256 261 269 278 286 292 302 306 306 308 318 322 312 312 311 314 312 308 299 291 290
168 171 182 180 176 177 177 185 185 192 200 205 206 213 237 261 249 242 261 276 294 320 319 326 326 331 329 325 329 341 343 340 337 338 333 330 331 324
185 186 180 179 180 174 171 177 178 179 178 180 183 161 309 258 265 276 274 297 315 323 324 327 329 331 338 337 338 343 342 338 333 328 326 322 322 325
195 190 180 179 180 178 178 177 181 186 186 188 213 240 253 226 183 135 319 322 330 329 342 344 348 351 346 340 337 336 338 329 331 330 326 322 321 321
180 180 177 178 179 179 182 190 200 214 224 197 197 170 107 15 327 320 313 311 344 0 358 5 352 343 340 343 338 335 332 332 336 338 328 328 327 321
175 177 178 182 184 188 196 205 216 225 210 207 214 210 256 261 301 315 318 319 317 21 19 358 343 349 344 332 328 327 330 331 327 320 316 316 315 311
187 187 190 195 199 204 212 223 243 219 204 206 198 219 250 273 295 329 348 33 38 13 5 356 348 343 340 335 335 331 326 326 322 317 315 313 306 306
194 200 200 204 209 216 230 208 179 193 200 189 193 223 134 13 34 51 43 25 18 27 353 345 342 340 341 346 346 335 331 323 320 317 321 323 316 324
206 208 210 211 218 212 197 200 211 206 201 190 201 202 319 142 120 89 65 55 28 12 351 352 351 348 351 349 346 345 333 331 335 338 347 348 348 350
215 217 219 218 213 227 237 230 215 200 197 203 219 162 111 118 135 131 77 30 19 6 355 351 353 356 352 349 342 348 0 352 351 343 343 345 344 347
217 220 223 217 226 230 223 217 207 196 201 203 147 110 136 179 156 124 97 29 8 354 355 357 356 349 346 347 349 349 353 360 355 349 349 345 342 338
219 218 216 219 218 208 199 197 195 193 173 155 155 175 165 171 152 135 62 25 6 2 2 360 350 345 347 349 348 347 347 353 355 349 349 349 347 331
220 219 223 228 217 209 207 200 189 176 166 175 181 179 173 160 151 121 48 21 5 0 360 353 348 343 346 350 352 351 348 346 343 344 349 350 351 347
Wind_Speed_850mb
46 45 55 69 77 81 78 83 82 53 48 56 53 55 55 54 46 25 17 19 18 18 20 21 19 17 14 16 18 19 23 25 28 29 32 34 35 36
48 49 52 60 71 77 80 76 64 70 41 66 60 57 48 46 33 27 21 19 17 17 18 20 20 19 18 19 22 27 29 30 32 36 38 39 41 42
43 39 43 56 62 72 72 55 46 49 62 53 47 40 42 46 39 22 19 17 16 19 21 22 24 23 24 27 26 30 31 34 39 43 46 45 46 48
35 40 46 56 70 69 65 51 57 44 45 44 39 31 27 26 18 18 16 20 18 17 22 23 27 26 25 28 30 35 38 43 47 49 51 52 54 53
25 40 53 62 56 51 50 55 49 37 36 32 31 30 28 24 25 24 19 19 20 19 17 22 20 23 27 32 38 42 47 50 53 56 59 59 59 59
36 49 52 54 59 56 49 47 49 34 30 31 30 24 30 33 23 23 23 22 16 14 19 23 29 31 34 37 41 48 49 49 48 46 48 51 57 61
44 42 45 54 58 57 48 49 40 33 33 27 24 30 30 32 24 15 20 20 21 22 26 25 29 31 32 37 40 40 39 39 42 46 48 51 56 54
37 42 45 50 52 46 42 35 31 34 29 26 22 20 17 14 12 13 20 21 22 16 29 29 38 47 44 46 46 49 50 48 49 53 58 60 59 56
47 48 47 49 51 42 34 37 32 29 21 21 15 10 8 6 3 14 18 21 26 27 39 49 49 54 47 53 49 55 51 47 49 55 59 63 62 62
37 38 43 46 42 42 44 32 31 32 29 22 33 19 12 19 24 23 25 28 28 30 34 38 34 29 23 39 40 33 33 44 64 76 62 53 60 66
29 28 33 32 37 36 42 46 37 35 26 24 33 32 25 27 30 30 31 31 33 28 34 34 36 45 52 53 52 52 54 52 50 45 43 46 56 65
33 25 36 36 35 35 42 44 36 38 26 27 21 15 13 6 4 6 7 11 12 24 23 41 46 49 51 40 46 43 46 47 50 50 49 48 48 55
33 31 36 34 36 36 33 32 30 28 25 20 12 6 2 10 12 13 12 13 16 18 32 44 48 45 42 54 56 54 59 59 57 54 52 56 67 56
35 34 34 38 41 40 36 35 29 22 15 7 6 12 11 11 6 2 8 18 23 29 27 30 30 33 40 52 61 64 63 55 51 52 56 61 62 60
28 34 39 43 46 41 35 29 23 21 18 14 17 14 8 6 13 15 8 15 20 19 17 19 29 39 45 47 55 59 58 72 67 54 54 50 56 57
32 40 40 40 40 35 31 29 25 18 14 22 20 9 10 8 15 19 19 16 14 10 19 26 34 35 37 42 51 61 62 67 67 60 62 65 64 68
39 40 43 43 42 40 36 26 18 18 28 24 16 13 15 12 6 8 8 8 17 24 26 24 30 36 45 51 59 49 60 63 65 70 75 76 76 76
49 48 43 41 39 35 30 22 31 27 32 28 20 5 2 6 6 11 14 16 18 15 22 32 42 51 61 61 52 60 58 57 63 71 74 64 66 63
53 47 41 38 32 27 29 31 34 42 37 26 13 4 8 6 12 10 6 11 16 20 24 32 43 54 68 71 69 59 60 59 56 59 60 55 57 58
61 49 44 38 33 34 39 43 52 50 44 30 16 9 14 10 9 12 9 11 15 22 30 38 46 53 60 67 64 61 54 58 56 61 58 55 53 51
60 55 52 47 40 44 49 54 57 51 38 19 25 11 11 15 14 10 5 11 19 24 30 39 49 56 62 69 64 64 58 51 47 53 59 63 63 66
55 56 60 51 44 54 58 59 54 39 28 32 15 13 20 19 15 9 7 12 17 25 31 41 49 58 65 61 61 64 60 52 45 44 45 45 59 52
57 60 59 56 59 65 59 53 43 36 34 19 19 29 25 20 14 6 5 14 22 27 36 43 51 57 58 56 57 61 58 58 64 65 54 45 45 43
Wind_Direction_850mb
155 156 150 156 164 164 161 154 155 147 154 170 167 173 171 176 179 179 200 213 218 207 197 198 205 218 244 261 270 271 275 285 290 300 301 299 296 295
148 149 153 161 162 165 159 160 158 161 150 164 166 173 173 179 182 208 213 205 214 219 221 219 224 240 263 275 278 279 280 288 296 297 296 295 293 293
145 153 152 159 158 164 153 155 149 165 156 160 163 164 170 182 203 205 203 208 215 221 223 230 241 260 273 278 280 282 290 295 294 293 292 293 293 291
151 156 157 161 158 151 157 159 155 158 164 160 163 171 184 191 206 212 197 211 215 232 246 254 261 266 275 285 288 288 291 291 291 291 293 292 290 290
144 160 161 163 167 173 168 161 161 147 163 170 183 202 204 201 203 194 208 220 223 234 249 245 268 286 285 285 287 291 291 292 294 297 296 292 292 292
146 149 150 154 154 159 163 154 158 160 171 183 193 197 204 203 204 214 222 242 268 267 271 279 280 287 291 295 296 292 295 298 301 304 307 308 305 301
133 140 145 153 153 147 144 150 151 162 165 174 190 178 193 201 211 212 233 247 259 273 273 286 298 297 301 301 303 306 309 308 309 318 317 310 307 304
148 146 141 143 142 142 136 145 158 166 162 163 152 156 181 165 177 218 236 243 261 273 296 302 305 303 301 304 319 311 309 309 316 317 311 307 303 303
147 141 142 147 159 157 156 159 171 175 174 178 194 170 188 65 292 254 254 265 282 300 295 297 302 306 318 313 315 310 306 308 314 312 302 303 302 299
146 147 149 151 158 165 162 172 175 175 185 205 220 232 249 249 245 261 272 282 276 287 288 299 311 326 341 331 326 314 315 305 304 302 299 294 300 303
145 152 157 153 157 169 177 177 175 182 176 174 183 203 215 224 234 256 261 269 278 286 292 302 306 306 308 318 322 312 312 311 314 312 308 299 291 290
168 171 182 180 176 177 177 185 185 192 200 205 206 213 237 261 249 242 261 276 294 320 319 326 326 331 329 325 329 341 343 340 337 338 333 330 331 324
185 186 180 179 180 174 171 177 178 179 178 180 183 161 309 258 265 276 274 297 315 323 324 327 329 331 338 337 338 343 342 338 333 328 326 322 322 325
195 190 180 179 180 178 178 177 181 186 186 188 213 240 253 226 183 135 319 322 330 329 342 344 348 351 346 340 337 336 338 329 331 330 326 322 321 321
180 180 177 178 179 179 182 190 200 214 224 197 197 170 107 15 327 320 313 311 344 0 358 5 352 343 340 343 338 335 332 332 336 338 328 328 327 321
175 177 178 182 184 188 196 205 216 225 210 207 214 210 256 261 301 315 318 319 317 21 19 358 343 349 344 332 328 327 330 331 327 320 316 316 315 311
187 187 190 195 199 204 212 223 243 219 204 206 198 219 250 273 295 329 348 33 38 13 5 356 348 343 340 335 335 331 326 326 322 317 315 313 306 306
194 200 200 204 209 216 230 208 179 193 200 189 193 223 134 13 34 51 43 25 18 27 353 345 342 340 341 346 346 335 331 323 320 317 321 323 316 324
206 208 210 211 218 212 197 200 211 206 201 190 201 202 319 142 120 89 65 55 28 12 351 352 351 348 351 349 346 345 333 331 335 338 347 348 348 350
215 217 219 218 213 227 237 230 215 200 197 203 219 162 111 118 135 131 77 30 19 6 355 351 353 356 352 349 342 348 0 352 351 343 343 345 344 347
217 220 223 217 226 230 223 217 207 196 201 203 147 110 136 179 156 124 97 29 8 354 355 357 356 349 346 347 349 349 353 360 355 349 349 345 342 338
219 218 216 219 218 208 199 197 195 193 173 155 155 175 165 171 152 135 62 25 6 2 2 360 350 345 347 349 348 347 347 353 355 349 349 349 347 331
220 219 223 228 217 209 207 200 189 176 166 175 181 179 173 160 151 121 48 21 5 0 360 353 348 343 346 350 352 351 348 346 343 344 349 350 351 347